Home   Weather   Lord Howe Island   Past weeks

Flag for Australia Past Weather in Lord Howe Island, Lord Howe Island, Australia — Yesterday and Last 2 Weeks

Now
71 °F

Mild.


Feels Like: 75 °F
Forecast: 71 / 75 °F
Wind: 9 mph from Southeast

Location: Lord Howe Island

Current Time: Feb 23, 2017 at 6:45:14 am

Latest Report: Feb 23, 2017 at 5:00 am


Visibility: N/A

Pressure: 30.07 "Hg

Humidity: 63%

Dew Point: 57 °F

Location of Lord Howe IslandLocation

Past Weather in Lord Howe Island — Graph

°F

Lord Howe Island Temperature Yesterday

Maximum temperature yesterday: 78 °F (at 12:00 pm)
Minimum temperature yesterday: 71 °F (at 5:00 am)
Average temperature yesterday: 73 °F

High & Low Weather Summary for the Past Weeks

 TemperatureHumidityPressure
High84 °F (Feb 12, 3:00 pm)95% (Feb 8, 9:00 pm)30.12 "Hg (Feb 8, 9:00 pm)
Low65 °F (Feb 10, 6:00 am)46% (Feb 22, 12:00 pm)29.58 "Hg (Feb 12, 6:00 pm)
Average75 °F68%29.93 "Hg
* Reported Feb 8 5:00 am — Feb 23 5:00 am, Lord Howe Island, Weather by CustomWeather, © 2017

Note: Actual official high and low records may vary slightly from our data, if they occured in-between our weather recording intervals... More about our weather records

Advertising

Lord Howe Island Weather History for the Previous 24 Hours

Scroll right to see more
 ConditionsComfort  
Time TempWeatherWind HumidityBarometerVisibility
5:00 am
Thu, Feb 23
71 °FMild.9 mph63%30.07 "HgN/A
3:00 am71 °FPassing clouds.10 mph57%30.08 "HgN/A
2:00 am72 °FMild.15 mph57%30.09 "HgN/A
12:00 am72 °FPassing clouds.17 mph57%30.11 "HgN/A
11:00 pm
Wed, Feb 22
72 °FMild.17 mph61%30.12 "HgN/A
9:00 pm72 °FMild.13 mph56%30.12 "HgN/A
8:00 pm73 °FMild.17 mph61%30.10 "HgN/A
6:00 pm73 °FOvercast.14 mph58%30.08 "HgN/A
5:00 pm74 °FMild.14 mph61%30.08 "HgN/A
3:00 pm74 °FOvercast.18 mph59%30.08 "HgN/A
2:00 pm75 °FMild.16 mph52%30.09 "HgN/A
12:00 pm78 °FWarm.16 mph46%30.11 "HgN/A
11:00 am74 °FMild.14 mph58%30.12 "HgN/A
9:00 am75 °FPassing clouds.13 mph54%30.12 "HgN/A
8:00 am74 °FMild.14 mph52%30.12 "HgN/A
6:00 am72 °FPassing clouds.13 mph54%30.08 "HgN/A
Weather by CustomWeather, © 2017

See weather overviewHow to use our weather pages